| time (UTC) | temp C | wind direction | speed KPH | gust KPH | rain 1hr cm | rain 24hr cm | rain mn cm | humidity % | barometer mb |
| 20260508022124 | 8 | 315 | 0.0 | 0.0 | 0.00 | 0.00 | 0.00 | 54 | 1119.0 |
| 20260508021124 | 8 | 315 | 0.0 | 0.0 | 0.00 | 0.00 | 0.00 | 53 | 1119.0 |
| 20260508015225 | 10 | 315 | 0.0 | 0.0 | 0.00 | 0.00 | 0.00 | 51 | 1118.9 |
| 20260508014226 | 10 | 337 | 0.0 | 0.0 | 0.00 | 0.00 | 0.00 | 50 | 1118.7 |
| 20260508013225 | 10 | 337 | 0.0 | 0.0 | 0.00 | 0.00 | 0.00 | 49 | 1118.7 |
| 20260508011322 | 11 | 294 | 1.6 | 6.4 | 0.00 | 0.00 | 0.00 | 48 | 1118.3 |
| 20260508010323 | 11 | 314 | 1.6 | 8.0 | 0.00 | 0.00 | 0.00 | 48 | 1118.3 |
| 20260508005325 | 11 | 322 | 3.2 | 8.0 | 0.00 | 0.00 | 0.00 | 47 | 1118.3 |
| 20260508004325 | 11 | 294 | 0.0 | 11.3 | 0.00 | 0.00 | 0.00 | 48 | 1118.1 |
| 20260508003424 | 11 | 292 | 0.0 | 0.0 | 0.00 | 0.00 | 0.00 | 46 | 1117.9 |
| 20260508002425 | 12 | 298 | 3.2 | 6.4 | 0.00 | 0.00 | 0.00 | 45 | 1117.5 |
| 20260508001524 | 12 | 301 | 3.2 | 8.0 | 0.00 | 0.00 | 0.00 | 45 | 1117.5 |
| 20260508000527 | 12 | 329 | 0.0 | 6.4 | 0.00 | 0.00 | 0.00 | 43 | 1117.1 |
| 20260507235623 | 13 | 335 | 3.2 | 6.4 | 0.00 | 0.00 | 0.00 | 43 | 1117.1 |
| 20260507234723 | 13 | 355 | 3.2 | 11.3 | 0.00 | 0.00 | 0.00 | 42 | 1117.1 |
| 20260507233725 | 14 | 321 | 1.6 | 4.8 | 0.00 | 0.00 | 0.00 | 41 | 1117.0 |
| 20260507232726 | 15 | 312 | 3.2 | 8.0 | 0.00 | 0.00 | 0.00 | 40 | 1117.1 |
| 20260507230725 | 15 | 303 | 3.2 | 9.7 | 0.00 | 0.00 | 0.00 | 42 | 1116.8 |
| 20260507224823 | 14 | 266 | 1.6 | 4.8 | 0.00 | 0.00 | 0.00 | 41 | 1116.4 |
| 20260507222923 | 15 | 314 | 1.6 | 9.7 | 0.00 | 0.00 | 0.00 | 39 | 1116.4 |
| 20260507220924 | 16 | 320 | 1.6 | 6.4 | 0.00 | 0.00 | 0.00 | 40 | 1116.4 |
| 20260507215922 | 16 | 145 | 0.0 | 1.6 | 0.00 | 0.00 | 0.00 | 41 | 1116.0 |
| 20260507214926 | 16 | 318 | 3.2 | 9.7 | 0.00 | 0.00 | 0.00 | 42 | 1116.0 |
| 20260507213025 | 16 | 294 | 0.0 | 1.6 | 0.00 | 0.00 | 0.00 | 37 | 1115.6 |
| 20260507212026 | 16 | 290 | 4.8 | 11.3 | 0.00 | 0.00 | 0.00 | 37 | 1116.0 |
| 20260507211026 | 16 | 275 | 1.6 | 8.0 | 0.00 | 0.00 | 0.00 | 35 | 1115.6 |
| 20260507210024 | 16 | 310 | 3.2 | 9.7 | 0.00 | 0.00 | 0.00 | 35 | 1115.6 |
| 20260507205024 | 16 | 289 | 4.8 | 11.3 | 0.00 | 0.00 | 0.00 | 37 | 1115.4 |
| 20260507204024 | 16 | 305 | 3.2 | 8.0 | 0.00 | 0.00 | 0.00 | 38 | 1115.6 |
| 20260507203024 | 16 | 283 | 0.0 | 4.8 | 0.00 | 0.00 | 0.00 | 38 | 1115.6 |
| 20260507202122 | 15 | 310 | 8.0 | 20.9 | 0.00 | 0.00 | 0.00 | 39 | 1116.0 |
| 20260507201125 | 15 | 267 | 3.2 | 9.7 | 0.00 | 0.00 | 0.00 | 38 | 1115.6 |
| 20260507200223 | 16 | 303 | 4.8 | 9.7 | 0.00 | 0.00 | 0.00 | 38 | 1115.8 |
| 20260507195224 | 16 | 316 | 3.2 | 8.0 | 0.00 | 0.00 | 0.00 | 39 | 1116.0 |
| 20260507194224 | 16 | 233 | 0.0 | 1.6 | 0.00 | 0.00 | 0.00 | 38 | 1116.0 |
| 20260507192225 | 17 | 300 | 8.0 | 14.5 | 0.00 | 0.00 | 0.00 | 40 | 1116.0 |
| 20260507191322 | 17 | 348 | 1.6 | 6.4 | 0.00 | 0.00 | 0.00 | 39 | 1116.4 |
| 20260507190325 | 16 | 261 | 1.6 | 6.4 | 0.00 | 0.00 | 0.00 | 41 | 1116.4 |
| 20260507184522 | 16 | 297 | 3.2 | 11.3 | 0.00 | 0.00 | 0.00 | 45 | 1116.4 |
| 20260507183525 | 15 | 322 | 6.4 | 11.3 | 0.00 | 0.00 | 0.00 | 46 | 1116.4 |
| 20260507182525 | 15 | 269 | 0.0 | 3.2 | 0.00 | 0.00 | 0.00 | 45 | 1116.6 |
| 20260507181625 | 15 | 268 | 1.6 | 4.8 | 0.00 | 0.00 | 0.00 | 44 | 1116.5 |
| 20260507175624 | 14 | 269 | 3.2 | 8.0 | 0.00 | 0.00 | 0.00 | 46 | 1116.8 |
| 20260507174623 | 15 | 310 | 1.6 | 6.4 | 0.00 | 0.00 | 0.00 | 46 | 1117.1 |
| 20260507173625 | 15 | 200 | 1.6 | 6.4 | 0.00 | 0.00 | 0.00 | 49 | 1117.1 |
| 20260507172624 | 15 | 318 | 3.2 | 9.7 | 0.00 | 0.00 | 0.00 | 49 | 1117.1 |
| 20260507171624 | 14 | 310 | 0.0 | 3.2 | 0.00 | 0.00 | 0.00 | 48 | 1117.3 |
| 20260507165624 | 14 | 250 | 3.2 | 11.3 | 0.00 | 0.00 | 0.00 | 46 | 1117.5 |
| 20260507164626 | 14 | 266 | 4.8 | 8.0 | 0.00 | 0.00 | 0.00 | 46 | 1117.5 |
| 20260507163723 | 15 | 331 | 0.0 | 3.2 | 0.00 | 0.00 | 0.00 | 46 | 1117.5 |
| 20260507162725 | 15 | 290 | 3.2 | 6.4 | 0.00 | 0.00 | 0.00 | 49 | 1117.5 |
| 20260507162626 | 15 | 307 | 3.2 | 12.9 | 0.00 | 0.00 | 0.00 | 49 | 1117.5 |
| 20260507161724 | 16 | 234 | 1.6 | 4.8 | 0.00 | 0.03 | 0.00 | 51 | 1117.7 |
| 20260507160724 | 15 | 247 | 1.6 | 11.3 | 0.00 | 0.03 | 0.00 | 51 | 1117.7 |
| 20260507155724 | 15 | 262 | 1.6 | 8.0 | 0.00 | 0.03 | 0.00 | 50 | 1117.9 |
| 20260507154723 | 14 | 279 | 3.2 | 6.4 | 0.00 | 0.03 | 0.00 | 50 | 1118.3 |
| 20260507152823 | 14 | 314 | 3.2 | 8.0 | 0.00 | 0.03 | 0.00 | 48 | 1118.3 |
| 20260507150825 | 15 | 287 | 4.8 | 6.4 | 0.00 | 0.03 | 0.00 | 53 | 1118.3 |
| 20260507144824 | 13 | 33 | 0.0 | 3.2 | 0.00 | 0.03 | 0.00 | 55 | 1118.8 |
| 20260507143825 | 13 | 276 | 0.0 | 4.8 | 0.00 | 0.03 | 0.00 | 52 | 1119.0 |
| 20260507142825 | 14 | 331 | 0.0 | 1.6 | 0.00 | 0.03 | 0.00 | 57 | 1119.0 |
| 20260507141824 | 13 | 281 | 3.2 | 11.3 | 0.00 | 0.03 | 0.00 | 60 | 1119.0 |
| 20260507135924 | 12 | 236 | 1.6 | 9.7 | 0.00 | 0.03 | 0.00 | 62 | 1119.4 |
| 20260507135022 | 12 | 211 | 1.6 | 4.8 | 0.00 | 0.03 | 0.00 | 64 | 1119.4 |
| 20260507134023 | 12 | 337 | 0.0 | 3.2 | 0.00 | 0.05 | 0.00 | 66 | 1119.6 |
| 20260507133025 | 12 | 339 | 4.8 | 8.0 | 0.00 | 0.08 | 0.00 | 66 | 1119.8 |
| 20260507132026 | 12 | 317 | 1.6 | 3.2 | 0.00 | 0.08 | 0.00 | 74 | 1119.8 |
| 20260507131025 | 11 | 55 | 0.0 | 0.0 | 0.00 | 0.10 | 0.00 | 80 | 1119.8 |
| 20260507130025 | 11 | 180 | 0.0 | 3.2 | 0.00 | 0.10 | 0.00 | 87 | 1119.8 |
| 20260507125025 | 12 | 247 | 0.0 | 0.0 | 0.00 | 0.10 | 0.00 | 92 | 1119.8 |
| 20260507123024 | 10 | 157 | 0.0 | 0.0 | 0.00 | 0.13 | 0.00 | 94 | 1119.8 |
| 20260507122024 | 8 | 157 | 0.0 | 0.0 | 0.00 | 0.13 | 0.00 | 93 | 1119.6 |
| 20260507121024 | 7 | 157 | 0.0 | 0.0 | 0.00 | 0.15 | 0.00 | 93 | 1119.4 |
| 20260507120025 | 6 | 135 | 0.0 | 0.0 | 0.00 | 0.18 | 0.00 | 92 | 1119.0 |
| 20260507114025 | 5 | 202 | 0.0 | 0.0 | 0.00 | 0.25 | 0.00 | 92 | 1118.7 |
| 20260507113024 | 4 | 202 | 0.0 | 0.0 | 0.00 | 0.25 | 0.00 | 91 | 1118.7 |
| 20260507112024 | 5 | 202 | 0.0 | 0.0 | 0.00 | 0.25 | 0.00 | 92 | 1118.3 |
| 20260507111123 | 4 | 202 | 0.0 | 0.0 | 0.00 | 0.25 | 0.00 | 92 | 1118.3 |
| 20260507110125 | 3 | 202 | 0.0 | 0.0 | 0.00 | 0.28 | 0.00 | 92 | 1118.3 |
| 20260507105222 | 3 | 202 | 0.0 | 0.0 | 0.00 | 0.28 | 0.00 | 92 | 1118.3 |
| 20260507104225 | 3 | 202 | 0.0 | 0.0 | 0.00 | 0.33 | 0.00 | 92 | 1118.3 |
| 20260507103223 | 3 | 202 | 0.0 | 0.0 | 0.00 | 0.38 | 0.00 | 92 | 1117.9 |
| 20260507102223 | 3 | 202 | 0.0 | 0.0 | 0.00 | 0.41 | 0.00 | 91 | 1117.9 |
| 20260507101225 | 3 | 202 | 0.0 | 0.0 | 0.00 | 0.46 | 0.00 | 91 | 1117.9 |
| 20260507100223 | 3 | 202 | 0.0 | 0.0 | 0.00 | 0.53 | 0.00 | 90 | 1117.9 |
| 20260507094324 | 3 | 202 | 0.0 | 0.0 | 0.00 | 0.66 | 0.00 | 90 | 1117.9 |
| 20260507092324 | 4 | 202 | 0.0 | 0.0 | 0.00 | 0.71 | 0.00 | 89 | 1117.9 |
| 20260507091324 | 4 | 202 | 0.0 | 0.0 | 0.00 | 0.76 | 0.00 | 89 | 1118.0 |
| 20260507090326 | 4 | 202 | 0.0 | 0.0 | 0.00 | 0.79 | 0.00 | 88 | 1118.1 |
| 20260507085424 | 4 | 202 | 0.0 | 0.0 | 0.00 | 0.81 | 0.00 | 87 | 1117.9 |
| 20260507084425 | 4 | 202 | 0.0 | 0.0 | 0.00 | 0.89 | 0.00 | 86 | 1118.3 |
| 20260507083523 | 4 | 202 | 0.0 | 0.0 | 0.00 | 0.91 | 0.00 | 86 | 1118.1 |
| 20260507081623 | 5 | 202 | 0.0 | 0.0 | 0.00 | 1.02 | 0.00 | 84 | 1118.3 |
| 20260507075625 | 5 | 202 | 0.0 | 0.0 | 0.00 | 1.09 | 0.00 | 82 | 1118.3 |
| 20260507074625 | 5 | 202 | 0.0 | 0.0 | 0.00 | 1.09 | 0.00 | 81 | 1118.3 |
| 20260507073624 | 5 | 202 | 0.0 | 0.0 | 0.00 | 1.09 | 0.00 | 80 | 1118.3 |
| 20260507071724 | 5 | 202 | 0.0 | 0.0 | 0.00 | 1.09 | 0.00 | 78 | 1118.3 |
| 20260507065824 | 5 | 202 | 0.0 | 0.0 | 0.00 | 1.09 | 0.00 | 75 | 1118.3 |
| 20260507064825 | 6 | 202 | 0.0 | 0.0 | 0.00 | 1.12 | 0.00 | 74 | 1118.7 |
| 20260507063825 | 7 | 202 | 0.0 | 0.0 | 0.00 | 1.12 | 0.00 | 73 | 1118.7 |
| 20260507062826 | 7 | 202 | 0.0 | 0.0 | 0.00 | 1.17 | 0.00 | 72 | 1118.7 |
| 20260507061924 | 7 | 202 | 0.0 | 0.0 | 0.00 | 1.19 | 0.00 | 72 | 1118.7 |
| 20260507060925 | 7 | 202 | 0.0 | 0.0 | 0.00 | 1.19 | 0.00 | 71 | 1119.0 |
| 20260507055923 | 8 | 202 | 0.0 | 0.0 | 0.00 | 1.22 | 0.00 | 71 | 1119.0 |
| 20260507054925 | 8 | 202 | 0.0 | 0.0 | 0.00 | 1.24 | 0.00 | 71 | 1119.0 |
| 20260507053924 | 8 | 202 | 0.0 | 0.0 | 0.00 | 1.24 | 0.00 | 70 | 1119.4 |
| 20260507052925 | 8 | 202 | 0.0 | 0.0 | 0.00 | 1.24 | 0.00 | 69 | 1119.4 |
| 20260507051925 | 8 | 202 | 0.0 | 0.0 | 0.00 | 1.27 | 0.00 | 68 | 1119.5 |
| 20260507050924 | 8 | 202 | 0.0 | 0.0 | 0.00 | 1.30 | 0.00 | 68 | 1119.7 |
| 20260507044223 | 8 | 202 | 0.0 | 0.0 | 0.00 | 1.35 | 0.00 | 68 | 1119.4 |
| 20260507043223 | 8 | 202 | 0.0 | 0.0 | 0.00 | 1.35 | 0.00 | 68 | 1119.4 |
| 20260507042226 | 8 | 202 | 0.0 | 0.0 | 0.00 | 1.35 | 0.00 | 68 | 1119.8 |
| 20260507041223 | 8 | 202 | 0.0 | 0.0 | 0.00 | 1.35 | 0.00 | 68 | 1119.7 |
| 20260507040226 | 9 | 202 | 0.0 | 0.0 | 0.00 | 1.35 | 0.00 | 68 | 1119.4 |
| 20260507035321 | 9 | 202 | 0.0 | 0.0 | 0.00 | 1.35 | 1.35 | 68 | 1119.4 |
| 20260507034419 | 9 | 202 | 0.0 | 0.0 | 0.00 | 1.35 | 1.35 | 67 | 1119.4 |
| 20260507032521 | 8 | 202 | 0.0 | 0.0 | 0.00 | 1.35 | 1.35 | 66 | 1119.4 |
| 20260507031522 | 9 | 202 | 0.0 | 0.0 | 0.00 | 1.35 | 1.35 | 67 | 1119.2 |
| 20260507025522 | 9 | 202 | 0.0 | 0.0 | 0.00 | 1.35 | 1.35 | 67 | 1119.0 |
| 20260507024620 | 9 | 202 | 0.0 | 0.0 | 0.00 | 1.35 | 1.35 | 67 | 1119.0 |
| 20260507023719 | 10 | 202 | 0.0 | 0.0 | 0.00 | 1.35 | 1.35 | 68 | 1119.0 |